Salina, KS

9:14 AM CDT on April 29, 2017 (GMT -0500)
Salina Municipal

Weather History for KSLN - March, 2013

Change the Weather History Date:

Saturday, March 23, 2013

  Actual Average Record
Temperature  
Mean Temperature 32 °F 48 °F  
Max Temperature 35 °F 60 °F 88 °F (1911)
Min Temperature 29 °F 36 °F 10 °F (1968)
Degree Days  
Heating Degree Days 33 17  
Month to date heating degree days 564 480  
Since 1 July heating degree days 4186 4321  
Cooling Degree Days 0 0  
Month to date cooling degree days 0 0  
Year to date cooling degree days 0 0  
Moisture  
Dew Point 29 °F    
Average Humidity 82    
Maximum Humidity 89    
Minimum Humidity 75    
Precipitation  
Precipitation 0.04 in 0.09 in 3.68 in (1987)
Month to date precipitation 0.40 1.67  
Year to date precipitation 3.67 3.47  
Sea Level Pressure  
Sea Level Pressure 29.97 in    
Wind  
Wind Speed 15 mph (NE)    
Max Wind Speed 25 mph    
Max Gust Speed 33 mph    
Visibility 4 miles    
Events Snow    
T = Trace of Precipitation, MM = Missing Value Source: NWS Daily Summary

Daily Weather History Graph

Daily Weather History Graph

Search for Another Location

Airport or City:

Trip Planner

Search our weather history database for the weather conditions in past years. The results will help you decide how hot, cold, wet, or windy it might be!

Date:

Astronomy

Mar. 23, 2013 Rise Set
Actual Time 7:28 AM CDT 7:45 PM CDT
Civil Twilight 7:02 AM CDT 8:12 PM CDT
Nautical Twilight 6:31 AM CDT 8:43 PM CDT
Astronomical Twilight 5:59 AM CDT 9:15 PM CDT
Moon 4:15 PM CDT (3/23) 5:03 AM CDT (3/23)
Length of Visible Light 13h 10m
Length of Day
12h 16m
Waxing Gibbous, 85% of the Moon is Illuminated
Mar 23
Waxing Gibbous
Mar 27
Full
Apr 2
Last Quarter
Apr 10
New
Apr 18
First Quarter

Hourly Weather History & Observations

Time (CDT) Temp. Windchill Dew Point Humidity Pressure Visibility Wind Dir Wind Speed Gust Speed Precip Events Conditions
12:33 AM 35.6 °F 29.2 °F 28.4 °F 75% 29.96 in 7.0 mi East 8.1 mph - N/A   Overcast
12:53 AM 34.0 °F 26.0 °F 28.9 °F 82% 30.00 in 8.0 mi East 10.4 mph - N/A   Overcast
1:53 AM 33.8 °F 26.4 °F 28.4 °F 81% 29.97 in 7.0 mi ENE 9.2 mph - N/A   Overcast
2:53 AM 33.1 °F 24.9 °F 28.9 °F 85% 29.99 in 7.0 mi East 10.4 mph - N/A   Overcast
3:53 AM 34.0 °F 26.0 °F 28.0 °F 79% 29.99 in 7.0 mi NE 10.4 mph - N/A   Overcast
4:53 AM 34.0 °F 27.2 °F 28.0 °F 79% 29.98 in 9.0 mi ENE 8.1 mph - N/A   Overcast
5:53 AM 34.0 °F 24.6 °F 28.0 °F 79% 29.96 in 10.0 mi East 13.8 mph - N/A   Overcast
6:04 AM 33.8 °F 25.8 °F 28.4 °F 81% 29.95 in 10.0 mi ENE 10.4 mph - N/A   Overcast
6:53 AM 34.0 °F 25.5 °F 28.0 °F 79% 29.95 in 9.0 mi NE 11.5 mph - N/A   Overcast
7:53 AM 34.0 °F 26.6 °F 28.0 °F 79% 29.97 in 7.0 mi NE 9.2 mph 19.6 mph N/A   Overcast
8:12 AM 33.8 °F 25.8 °F 28.4 °F 81% 29.96 in 6.0 mi ENE 10.4 mph 18.4 mph N/A   Haze
8:53 AM 34.0 °F 25.5 °F 28.0 °F 79% 30.04 in 5.0 mi NE 11.5 mph - 0.00 in   Overcast
9:53 AM 33.1 °F 22.2 °F 28.0 °F 82% 30.02 in 4.0 mi NE 17.3 mph 25.3 mph 0.00 in Snow Light Snow
10:53 AM 35.1 °F 26.4 °F 28.0 °F 76% 30.01 in 4.0 mi NE 12.7 mph 20.7 mph 0.00 in Snow Light Snow
11:53 AM 35.1 °F 26.4 °F 28.9 °F 78% 30.01 in 2.5 mi ENE 12.7 mph - 0.00 in Snow Light Snow
12:53 PM 34.0 °F 25.5 °F 30.0 °F 85% 29.98 in 1.8 mi NE 11.5 mph - 0.01 in Snow Light Snow
12:55 PM 33.8 °F 24.3 °F 30.2 °F 87% 29.95 in 2.0 mi NE 13.8 mph 18.4 mph 0.00 in Snow Light Snow
1:22 PM 33.8 °F 24.8 °F 30.2 °F 87% 29.94 in 1.8 mi NE 12.7 mph - 0.01 in Snow Light Snow
1:50 PM 33.8 °F 24.3 °F 30.2 °F 87% 29.95 in 0.8 mi NE 13.8 mph - 0.01 in Snow Light Snow
1:53 PM 33.1 °F 23.9 °F 30.0 °F 89% 29.97 in 0.8 mi NE 12.7 mph - 0.01 in Snow Light Snow
2:53 PM 34.0 °F 25.5 °F 30.0 °F 85% 29.96 in 1.8 mi NE 11.5 mph 24.2 mph 0.01 in Snow Light Snow
3:53 PM 34.0 °F 24.2 °F 30.0 °F 85% 29.95 in 2.5 mi NNE 15.0 mph - 0.00 in Snow Light Snow
4:22 PM 33.8 °F 24.3 °F 30.2 °F 87% 29.92 in 3.0 mi NNE 13.8 mph - 0.00 in Snow Light Snow
4:53 PM 34.0 °F 23.0 °F 30.0 °F 85% 29.95 in 2.0 mi North 18.4 mph - 0.00 in Snow Light Snow
5:11 PM 33.8 °F 23.9 °F 30.2 °F 87% 29.92 in 1.8 mi NNE 15.0 mph - 0.00 in Snow Light Snow
5:13 PM 33.8 °F 23.2 °F 30.2 °F 87% 29.92 in 1.8 mi North 17.3 mph - 0.00 in Snow Light Snow
5:41 PM 33.8 °F 23.5 °F 30.2 °F 87% 29.92 in 2.0 mi NNE 16.1 mph - 0.01 in Snow Light Snow
5:53 PM 34.0 °F 23.8 °F 28.9 °F 82% 29.95 in 2.0 mi NNE 16.1 mph 24.2 mph 0.01 in Snow Light Snow
5:57 PM 33.8 °F 24.3 °F 30.2 °F 87% 29.91 in 1.8 mi NNE 13.8 mph 24.2 mph 0.00 in Snow Light Snow
6:53 PM 33.1 °F 21.9 °F 28.9 °F 85% 29.99 in 1.5 mi NNE 18.4 mph 23.0 mph 0.00 in Snow Light Snow
7:53 PM 32.0 °F 20.1 °F 28.9 °F 88% 29.99 in 0.8 mi North 19.6 mph 25.3 mph 0.00 in   Overcast
8:00 PM 32.0 °F 21.2 °F 28.4 °F 87% 29.96 in 1.0 mi North 16.1 mph - N/A   Overcast
8:53 PM 32.0 °F 19.8 °F 28.9 °F 88% 29.94 in 2.5 mi NNE 20.7 mph 28.8 mph N/A   Overcast
9:47 PM 33.8 °F 23.5 °F 28.4 °F 81% 30.00 in 4.0 mi North 16.1 mph - N/A   Haze
9:53 PM 33.1 °F 22.6 °F 28.0 °F 82% 30.03 in 5.0 mi North 16.1 mph - N/A   Haze
10:28 PM 32.0 °F 18.6 °F 26.6 °F 80% 29.93 in 2.0 mi NNE 25.3 mph 33.4 mph N/A   Haze
10:36 PM 32.0 °F 20.1 °F 28.4 °F 87% 29.96 in 1.8 mi NNE 19.6 mph 33.4 mph N/A   Overcast
10:46 PM 32.0 °F 20.5 °F 28.4 °F 87% 29.97 in 1.2 mi NNE 18.4 mph 26.5 mph N/A   Overcast
10:53 PM 32.0 °F 19.8 °F 28.0 °F 85% 30.00 in 1.0 mi NNE 20.7 mph 27.6 mph 0.00 in Snow Light Snow
11:20 PM 30.2 °F 17.8 °F 28.4 °F 93% 29.99 in 1.2 mi North 19.6 mph 24.2 mph 0.00 in Snow Light Snow
11:37 PM 30.2 °F 18.9 °F 26.6 °F 86% 30.02 in 1.5 mi North 16.1 mph 23.0 mph 0.00 in Snow Light Snow
11:53 PM 30.9 °F 19.1 °F 27.0 °F 85% 30.04 in 1.2 mi North 18.4 mph 24.2 mph 0.00 in Snow Light Snow